This demonstration page uses our WeatherBlox Daily Observations layout. Learn more.

Left ArrowRight Arrow

39.92423, -83.80882

Hourly Observations for January 8, 2021

Temp ( °F °C ) Dew Point ( °F °C ) Humidity (%) Winds ( mph kmh ) Pressure ( in mb ) Visibility ( mi km ) Precip ( " mm )
12:56 am 00:56 Cloudy 30 -1.1 27 -2.8 88 88 NE 10 17 30.19 1022 10 16.0934 0 0
1:56 am 01:56 Cloudy 30 -1.1 27 -2.8 88 88 NNE 10 17 30.17 1022 10 16.0934 0 0
2:56 am 02:56 Cloudy 30 -1.1 27 -2.8 88 88 NNE 10 17 30.16 1022 10 16.0934 0.01 0.254
3:05 am 03:05 Cloudy 30 -1 27 -3 86 86 NNE 10 17 30.19 1022 10 16.0934 0 0
3:56 am 03:56 Cloudy 29 -1.7 27 -2.8 92 92 NNE 10 17 30.16 1021 10 16.0934 0 0
4:56 am 04:56 Cloudy 29 -1.7 26 -3.3 89 89 NNE 12 19 30.15 1021 10 16.0934 0 0
5:56 am 05:56 Cloudy 29 -1.7 26 -3.3 89 89 NE 9 15 30.15 1021 10 16.0934 0 0
6:56 am 06:56 Cloudy 29 -1.7 26 -3.3 89 89 NE 8 13 30.14 1021 10 16.0934 0 0
7:56 am 07:56 Cloudy 29 -1.7 26 -3.3 89 89 NNE 12 19 30.15 1021 10 16.0934 0 0
8:22 am 08:22 Cloudy 30 -1 27 -3 86 86 NE 9 15 30.18 1022 10 16.0934 0 0
8:56 am 08:56 Cloudy 30 -1.1 27 -2.8 88 88 N 13 20 30.16 1021 10 16.0934 0 0
9:28 am 09:28 Cloudy 30 -1 27 -3 86 86 NNE 9 15 30.19 1022 10 16.0934 0 0
9:56 am 09:56 Cloudy 30 -1.1 26 -3.3 85 85 NNE 10 17 30.16 1021 10 16.0934 0 0
10:56 am 10:56 Cloudy 31 -0.6 26 -3.3 82 82 N 13 20 30.16 1021 10 16.0934 0 0
11:56 am 11:56 Cloudy 30 -1.1 27 -2.8 88 88 NNE 12 19 30.14 1021 10 16.0934 0 0
12:56 pm 12:56 Cloudy 30 -1.1 26 -3.3 85 85 N 13 20 30.12 1020 10 16.0934 0 0
1:15 pm 13:15 Cloudy 30 -1 27 -3 86 86 N 12 19 30.13 1020 10 16.0934 0 0
1:56 pm 13:56 Cloudy 30 -1.1 26 -3.3 85 85 N 14 22 30.11 1020 10 16.0934 0 0
2:56 pm 14:56 Cloudy 30 -1.1 26 -3.3 85 85 N 10 17 30.11 1020 10 16.0934 0 0
3:09 pm 15:09 Cloudy 28 -2 27 -3 93 93 N 10 17 30.13 1020 10 16.0934 0 0
3:56 pm 15:56 Cloudy 29 -1.7 25 -3.9 85 85 N 10 17 30.12 1020 10 16.0934 0 0
4:38 pm 16:38 Cloudy 28 -2 25 -4 86 86 N 9 15 30.14 1021 10 16.0934 0 0
4:56 pm 16:56 Cloudy 29 -1.7 25 -3.9 85 85 N 14 22 30.13 1020 10 16.0934 0 0
5:56 pm 17:56 Cloudy 28 -2.2 24 -4.4 85 85 NNE 12 19 30.14 1021 10 16.0934 0 0
6:56 pm 18:56 Cloudy 29 -1.7 25 -3.9 85 85 N 9 15 30.15 1021 10 16.0934 0 0
7:56 pm 19:56 Cloudy 29 -1.7 26 -3.3 89 89 N 8 13 30.16 1021 10 16.0934 0 0
8:16 pm 20:16 Cloudy 28 -2 27 -3 93 93 N 10 17 30.18 1022 10 16.0934 0 0
8:56 pm 20:56 Cloudy 29 -1.7 25 -3.9 85 85 NNE 12 19 30.16 1021 10 16.0934 0 0
9:56 pm 21:56 Cloudy 28 -2.2 25 -3.9 88 88 NNE 13 20 30.16 1022 10 16.0934 0 0
10:56 pm 22:56 Cloudy 28 -2.2 25 -3.9 88 88 NNE 10 17 30.16 1021 10 16.0934 0 0
11:56 pm 23:56 Cloudy 28 -2.2 25 -3.9 88 88 N 9 15 30.15 1021 10 16.0934 0 0

Powered by AerisWeather